[[{"header":{"parameterUnit":"m.s-1","parameterCategory":1,"la1":30.2991,"la2":30.254,"lo1":-89.0895,"lo2":-89.0444,"dy":0.0017,"dx":0.0017,"nx":28,"ny":28,"refTime":"2025-02-06T09:00:00:Z","depth":0,"parameterNumber":2,"parameterNumberName":"U-component_of_WINDS"},"data":[0,0,0,0,0,0,0,0,0,0,0,0,0,0,0,0,0,0,0,0,0,0,0,0,0,0,0,0,0,0,0,0,0,0,0,0,0,0,0,0,0,0,0,0,0,0,0,0,0,0,0,0,0,0,0,0,0,0,-2.209,-2.209,0,-2.2084,-2.2083,-2.2083,-2.205,-2.2049,-2.2048,-2.2047,-2.2041,-2.2042,-2.2043,0,0,0,0,0,0,0,0,0,0,0,0,0,-2.2073,-2.2074,-2.209,-2.209,-2.2089,-2.2084,-2.2083,-2.2083,-2.205,-2.2049,-2.2048,-2.2047,-2.2041,-2.2042,-2.2043,0,0,0,0,0,0,0,0,0,0,0,0,0,-2.2075,-2.2074,-2.209,-2.2072,-2.207,-2.2084,-2.2083,-2.2083,-2.205,-2.2049,-2.2048,-2.2047,-2.2041,-2.2042,-2.2043,-2.2072,0,0,-2.2045,-2.2046,0,0,0,0,0,0,0,0,-2.2075,-2.2076,-2.2075,-2.2073,-2.2071,-2.2066,-2.2075,-2.208,-2.205,-2.2058,-2.2047,-2.2046,-2.2051,-2.2051,-2.2052,-2.2072,-2.2072,-2.2046,-2.2046,-2.2046,-2.2047,0,0,0,0,0,0,0,-2.2075,-2.2076,-2.2087,-2.2075,-2.2073,-2.2065,-2.2064,-2.2076,-2.2061,-2.2057,-2.2055,-2.2054,-2.205,-2.2051,-2.2052,-2.2072,-2.2046,-2.2046,-2.2047,-2.2047,-2.2115,-2.2117,0,0,0,0,0,0,-2.2077,-2.2076,-2.2087,-2.2087,-2.207,-2.2066,-2.2065,-2.2069,-2.2061,-2.2058,-2.2055,-2.2053,-2.205,-2.2051,-2.2051,-2.2085,-2.2046,-2.2047,-2.2048,-2.2114,-2.2116,-2.2117,0,0,0,0,0,0,-2.2077,-2.2078,-2.2088,-2.2081,-2.2081,-2.2068,-2.2073,-2.207,-2.2071,-2.206,-2.2057,-2.206,-2.205,-2.205,-2.2067,-2.2084,-2.2048,-2.2048,-2.2113,-2.2115,-2.2116,-2.2152,0,0,0,0,0,0,-2.2076,-2.2079,-2.2089,-2.2081,-2.2082,-2.2103,-2.2074,-2.207,-2.2073,-2.2069,-2.2063,-2.2061,-2.2049,-2.2066,-2.2068,-2.2085,-2.2049,-2.2111,-2.2114,-2.2116,-2.2149,-2.2155,-2.216,0,0,0,0,0,-2.2076,-2.21,-2.209,-2.2092,-2.2095,-2.2104,-2.2105,-2.209,-2.2074,-2.2085,-2.2078,-2.2061,-2.2082,-2.2068,-2.207,-2.2087,-2.211,-2.2113,-2.2116,-2.2147,-2.2154,-2.216,0,0,0,0,0,0,-2.211,-2.2098,-2.2087,-2.2109,-2.2108,-2.2099,-2.2112,-2.2098,-2.2101,-2.2098,-2.208,-2.2079,-2.2098,-2.2095,-2.2079,-2.2115,-2.2093,-2.2097,-2.2116,-2.2123,-2.2128,-2.2127,-2.205,0,0,0,0,0,-2.212,-2.2129,-2.2118,-2.2139,-2.2139,-2.2126,-2.2129,-2.2118,-2.2116,-2.2115,-2.2109,-2.2108,-2.2114,-2.2119,-2.2124,-2.2149,-2.2147,-2.2162,-2.2167,-2.2172,-2.2174,-2.2187,-2.2193,-2.2127,-2.2126,-2.2126,0,0,-2.2141,-2.2136,-2.2142,-2.2145,-2.2143,-2.2152,-2.2125,-2.2136,-2.2142,-2.2117,-2.2132,-2.2128,-2.2126,-2.2147,-2.2156,-2.2144,-2.2192,-2.2175,-2.2179,-2.2179,-2.219,-2.2196,-2.2202,-2.2128,-2.2128,-2.2128,0,0,-2.2183,-2.2181,-2.2196,-2.2195,-2.2192,-2.2183,-2.2188,-2.2181,-2.2176,-2.2192,-2.2173,-2.2181,-2.2192,-2.2191,-2.2192,-2.2235,-2.2219,-2.2238,-2.2264,-2.2276,-2.2281,-2.2286,-2.23,-2.2305,-2.224,-2.2241,-2.2241,0,-2.2209,-2.2222,-2.2207,-2.2219,-2.222,-2.2198,-2.2214,-2.2214,-2.2213,-2.2215,-2.2202,-2.2216,-2.2213,-2.2233,-2.2244,-2.2246,-2.2249,-2.2237,-2.2282,-2.2286,-2.229,-2.2303,-2.2309,-2.2243,-2.2242,-2.2242,-2.2242,0,-2.2253,-2.2262,-2.2276,-2.2275,-2.2279,-2.2293,-2.228,-2.2286,-2.2275,-2.2268,-2.2284,-2.228,-2.2283,-2.2288,-2.2278,-2.2307,-2.23,-2.2285,-2.2262,-2.2299,-2.2311,-2.2316,-2.2246,-2.2245,-2.2244,-2.2244,0,0,-2.2314,-2.2306,-2.2311,-2.231,-2.2306,-2.2313,-2.2327,-2.233,-2.2335,-2.2336,-2.2346,-2.2357,-2.2343,-2.2344,-2.2334,-2.2345,-2.2378,-2.2329,-2.2329,-2.2337,-2.2408,-2.2418,-2.2424,-2.2369,-2.237,-2.237,-2.2408,0,-2.2353,-2.2375,-2.2362,-2.2385,-2.2393,-2.2374,-2.2385,-2.2384,-2.2378,-2.2384,-2.2378,-2.2385,-2.2368,-2.2368,-2.2379,-2.2372,-2.2392,-2.2369,-2.2377,-2.2377,-2.2376,-2.243,-2.244,-2.2476,-2.2413,-2.2414,-2.2414,0,-2.2401,-2.2403,-2.2427,-2.2421,-2.2424,-2.2435,-2.2437,-2.2444,-2.2442,-2.2437,-2.2439,-2.2426,-2.2439,-2.2418,-2.2435,-2.242,-2.2423,-2.2421,-2.2422,-2.242,-2.2396,-2.2428,-2.2487,-2.2492,-2.2422,-2.2421,-2.242,0,-2.2441,-2.245,-2.2466,-2.2466,-2.246,-2.2468,-2.2466,-2.2463,-2.2466,-2.2469,-2.247,-2.2475,-2.2477,-2.248,-2.2469,-2.2455,-2.2487,-2.2466,-2.2483,-2.2483,-2.2488,-2.2488,-2.2546,-2.2494,-2.2494,-2.2494,-2.2494,0,-2.2484,-2.2499,-2.2483,-2.2493,-2.2509,-2.2496,-2.2512,-2.2508,-2.2506,-2.2514,-2.2498,-2.2506,-2.2492,-2.2499,-2.249,-2.2505,-2.2507,-2.2502,-2.25,-2.2503,-2.2503,-2.2502,-2.2499,-2.2495,-2.2495,-2.2494,-2.2494,0,-2.253,-2.2521,-2.2536,-2.2529,-2.2528,-2.254,-2.2535,-2.2543,-2.2537,-2.2548,-2.2549,-2.2539,-2.2546,-2.2536,-2.2542,-2.2537,-2.2557,-2.2551,-2.2557,-2.2554,-2.2571,-2.2569,-2.263,-2.2636,-2.2582,-2.2582,-2.2583,0,-2.2557,-2.2568,-2.2563,-2.2567,-2.2566,-2.2574,-2.2577,-2.2564,-2.2568,-2.2567,-2.2576,-2.2582,-2.2585,-2.2598,-2.2591,-2.2596,-2.2589,-2.261,-2.2589,-2.2592,-2.2587,-2.2586,-2.2586,-2.2614,-2.2614,-2.2615,-2.2615,0,-2.2606,-2.2601,-2.2606,-2.2609,-2.2613,-2.2615,-2.2616,-2.2621,-2.2608,-2.2613,-2.262,-2.2623,-2.263,-2.2635,-2.2638,-2.2636,-2.2623,-2.2622,-2.2626,-2.2628,-2.263,-2.2627,-2.2566,-2.262,-2.262,-2.2619,-2.2619,-2.2619,-2.2642,-2.2651,-2.2648,-2.2654,-2.2654,-2.2656,-2.2663,-2.2658,-2.2663,-2.2667,-2.266,-2.2669,-2.2667,-2.267,-2.267,-2.2677,-2.2667,-2.2673,-2.2674,-2.2675,-2.2677,-2.2631,-2.2677,-2.2677,-2.2677,-2.2677,-2.2677,0,-2.2688,-2.2686,-2.2692,-2.2694,-2.2699,-2.2687,-2.2688,-2.2692,-2.27,-2.27,-2.2704,-2.2712,-2.2718,-2.2713,-2.2717,-2.2724,-2.2718,-2.2725,-2.2723,-2.2723,-2.2686,-2.2681,-2.273,-2.273,-2.273,-2.273,-2.273,-2.273,-2.2713,-2.2726,-2.2721,-2.2735,-2.2733,-2.2741,-2.2742,-2.2743,-2.2743,-2.2753,-2.2757,-2.2754,-2.2752,-2.2756,-2.2761,-2.2759,-2.2761,-2.277,-2.2766,-2.2731,-2.2726,-2.272,-2.2716,-2.2771,-2.2771,-2.2802,-2.2802,-2.2802]},{"header":{"parameterUnit":"m.s-1","parameterCategory":1,"la1":30.2991,"la2":30.254,"lo1":-89.0895,"lo2":-89.0444,"dy":0.0017,"dx":0.0017,"nx":28,"ny":28,"refTime":"2025-02-06T09:00:00:Z","depth":0,"parameterNumber":3,"parameterNumberName":"V-component_of_WINDS"},"data":[0,0,0,0,0,0,0,0,0,0,0,0,0,0,0,0,0,0,0,0,0,0,0,0,0,0,0,0,0,0,0,0,0,0,0,0,0,0,0,0,0,0,0,0,0,0,0,0,0,0,0,0,0,0,0,0,0,0,2.9028,2.9029,0,2.9148,2.915,2.9151,2.9184,2.9184,2.9183,2.9182,2.9303,2.9307,2.931,0,0,0,0,0,0,0,0,0,0,0,0,0,2.8826,2.8829,2.9028,2.9029,2.9031,2.9148,2.915,2.9151,2.9184,2.9184,2.9183,2.9182,2.9302,2.9306,2.9311,0,0,0,0,0,0,0,0,0,0,0,0,0,2.8927,2.8831,2.9028,2.9062,2.9066,2.9148,2.915,2.9152,2.9185,2.9183,2.9182,2.9182,2.93,2.9306,2.9311,2.9368,0,0,2.9329,2.9332,0,0,0,0,0,0,0,0,2.8921,2.8934,2.9055,2.9059,2.9064,2.915,2.9123,2.9224,2.9185,2.9139,2.9182,2.9181,2.9253,2.9262,2.9287,2.9373,2.9378,2.933,2.9333,2.9336,2.9337,0,0,0,0,0,0,0,2.8914,2.8929,2.9075,2.9057,2.9062,2.9071,2.9084,2.9142,2.92,2.9143,2.9146,2.916,2.9255,2.9281,2.929,2.938,2.9329,2.9335,2.9338,2.934,2.9521,2.9523,0,0,0,0,0,0,2.8901,2.8923,2.9072,2.9079,2.8989,2.9075,2.909,2.9124,2.92,2.921,2.9161,2.9161,2.9272,2.9283,2.9295,2.9368,2.9336,2.9341,2.9344,2.952,2.9522,2.9523,0,0,0,0,0,0,2.8897,2.8914,2.9067,2.9002,2.9022,2.908,2.9117,2.9127,2.9153,2.9213,2.9223,2.9177,2.9272,2.9286,2.935,2.9373,2.9344,2.9349,2.9519,2.9521,2.9522,2.9514,0,0,0,0,0,0,2.8891,2.8912,2.8934,2.9002,2.9025,2.9121,2.9119,2.913,2.9163,2.9165,2.9231,2.9241,2.9272,2.9341,2.9356,2.938,2.9353,2.9517,2.9519,2.9522,2.9512,2.9515,2.9518,0,0,0,0,0,2.8883,2.8926,2.8935,2.8953,2.9054,2.9122,2.9135,2.9171,2.9165,2.9188,2.9227,2.9239,2.9367,2.9348,2.9364,2.939,2.9516,2.9519,2.9522,2.9511,2.9514,2.9517,0,0,0,0,0,0,2.8858,2.8935,2.8947,2.9012,2.906,2.9127,2.9157,2.9173,2.9223,2.9222,2.9263,2.9278,2.9339,2.9371,2.9347,2.945,2.9442,2.9448,2.9428,2.9432,2.9434,2.9426,2.9358,0,0,0,0,0,2.886,2.8909,2.8974,2.9025,2.9049,2.9099,2.9129,2.9153,2.9204,2.9224,2.9268,2.9316,2.9368,2.9401,2.9452,2.9516,2.9532,2.9542,2.9545,2.9547,2.9553,2.9592,2.9598,2.9533,2.9533,2.9533,0,0,2.8864,2.8913,2.8941,2.9021,2.9061,2.9112,2.9116,2.9168,2.9206,2.9232,2.9296,2.9329,2.9386,2.9452,2.9482,2.948,2.9574,2.9551,2.9552,2.9557,2.9596,2.9602,2.9608,2.9535,2.9535,2.9535,0,0,2.8899,2.894,2.8989,2.903,2.9091,2.9124,2.9136,2.9201,2.9225,2.929,2.9312,2.9356,2.9444,2.9485,2.9517,2.9569,2.9583,2.9584,2.9599,2.9637,2.9642,2.9647,2.9668,2.9675,2.9589,2.9589,2.9589,0,2.8897,2.8974,2.9012,2.9064,2.91,2.9127,2.9178,2.9215,2.9289,2.9313,2.9309,2.9421,2.9461,2.9538,2.9551,2.9575,2.9591,2.9578,2.9638,2.9643,2.9648,2.9669,2.9677,2.9589,2.9589,2.9589,2.9589,0,2.897,2.9023,2.9055,2.9129,2.9167,2.9218,2.9264,2.9299,2.9319,2.9353,2.9419,2.9469,2.9531,2.955,2.957,2.9631,2.9628,2.963,2.9623,2.9654,2.9675,2.9682,2.9589,2.9589,2.9589,2.9589,0,0,2.8992,2.9087,2.9098,2.9133,2.9204,2.9246,2.9298,2.9361,2.9391,2.9441,2.9487,2.9561,2.9565,2.9602,2.9626,2.9659,2.9701,2.9658,2.966,2.9667,2.9774,2.9773,2.9782,2.971,2.9711,2.9712,2.977,0,2.9038,2.9135,2.9171,2.925,2.9301,2.9328,2.9375,2.9423,2.9456,2.9504,2.954,2.9593,2.9592,2.9615,2.9649,2.9688,2.9723,2.9684,2.9754,2.9756,2.9742,2.9792,2.9792,2.9844,2.9778,2.9779,2.978,0,2.9104,2.9158,2.9243,2.931,2.9332,2.9373,2.9435,2.948,2.9536,2.9557,2.9599,2.9622,2.9679,2.9666,2.9746,2.9719,2.975,2.9773,2.9776,2.9786,2.9772,2.9806,2.9861,2.987,2.9793,2.9792,2.9791,0,2.9115,2.9208,2.9272,2.93,2.9379,2.9408,2.9442,2.9497,2.9533,2.9586,2.961,2.9668,2.9701,2.9746,2.9784,2.9771,2.9861,2.9851,2.9882,2.9882,2.9902,2.9901,2.9965,2.9917,2.9917,2.9916,2.9916,0,2.9164,2.9216,2.9279,2.9318,2.9377,2.9418,2.9475,2.9511,2.956,2.9607,2.9633,2.9676,2.9723,2.9772,2.9802,2.9865,2.9879,2.9899,2.9907,2.9898,2.9896,2.9921,2.9919,2.9919,2.9918,2.9918,2.9917,0,2.9187,2.9231,2.9303,2.9373,2.9391,2.9432,2.9492,2.9531,2.9566,2.9625,2.9641,2.9696,2.9756,2.9798,2.9874,2.9894,2.9963,2.9969,2.9945,2.995,2.998,2.9977,3.0064,3.0079,3.0018,3.0018,3.0019,0,2.9217,2.9258,2.9332,2.9367,2.9401,2.9455,2.9493,2.9535,2.9573,2.9641,2.9673,2.9735,2.9788,2.9882,2.9928,2.9987,2.9997,3.0023,3.0006,2.9997,3.0001,2.9999,3.0005,3.0026,3.0027,3.0027,3.0027,0,2.9265,2.9286,2.934,2.9403,2.9447,2.9498,2.9549,2.9575,2.9626,2.9668,2.9731,2.9771,2.9851,2.9913,2.9977,3.0012,3.0029,3.0032,3.0043,3.0036,3.0022,3.0034,2.9956,3.0031,3.003,3.003,3.003,3.003,2.9295,2.9334,2.9393,2.9453,2.9497,2.9544,2.9586,2.9627,2.968,2.975,2.9771,2.9837,2.9893,2.9981,3.0017,3.0069,3.0067,3.0082,3.0087,3.009,3.0092,3.0012,3.008,3.008,3.008,3.008,3.008,0,2.9348,2.9388,2.9443,2.9515,2.9562,2.9575,2.9632,2.9671,2.973,2.9781,2.9833,2.9906,2.9967,3.0019,3.0082,3.0114,3.0123,3.0129,3.0129,3.0137,3.0088,3.0074,3.0121,3.0121,3.0121,3.0121,3.0121,3.0121,2.9381,2.9448,2.9476,2.9566,2.9605,2.9672,2.9704,2.9748,2.9791,2.9872,2.9923,2.9957,3.0009,3.0077,3.0133,3.0147,3.017,3.0175,3.019,3.0144,3.014,3.0136,3.0123,3.0179,3.0179,3.0235,3.0236,3.0236]}]]